Location: Boiro
(42.6475°N, 8.8834°W)
Time: 23:24:17
(UTC+01:00)

A-11 Canister half - Pass Details

Date: 01 December 2021
Orbit: 1516 x 1684 km, 47.2° (Epoch: 18 January)

Event Time Altitude Azimuth Distance (km) Brightness Sun altitude
Rises 13:28:29 0° 287° (WNW) 4,873 11.5 25.5°
Reaches altitude 10° 13:31:37 10° 289° (WNW) 3,903 11.0 25.5°
Maximum altitude 13:41:43 77° 16° (NNE) 1,716 9.5 25.3°
Drops below altitude 10° 13:51:56 10° 103° (ESE) 3,943 11.3 25.2°
Sets 13:55:06 0° 105° (ESE) 4,924 11.7 25.1°
